Location: Novokuznetsk
(53.7500°N, 87.1000°E)
Time: 20:56:17
(UTC+06:00)

ISS - Pass Details

Date: 28 February 2021
Orbit: 418 x 422 km, 51.6° (Epoch: 16 April)

Event Time Altitude Azimuth Distance (km) Brightness Sun altitude
Exits shadow 05:55:26 15° 250° (WSW) 1,216 -2.0 -10.7°
Maximum altitude 05:58:01 58° 173° (S) 495 -3.4 -10.3°
Drops below altitude 10° 06:01:20 10° 94° (E) 1,501 0.7 -9.8°
Sets 06:03:34 0° 90° (E) 2,410 2.6 -9.5°
